CAS-2T & KS-1Q

Last updated on Thu Oct 30 2025 00:03:10 GMT+0000 (Coordinated Universal Time)

1 41847U 16066G 25302.48645620 .00002084 00000+0 30058-3 0 9992 2 41847 98.4077 15.6594 0345506 108.9794 254.9167 14.43965341471491
UTC large
Height (km)
Speed (km/s)
/
Latitude / Longitude
Inclination (degrees)
Orbital Period (minutes)
Azimuth
Elevation
Range (km)
Doppler Factor

Next 0 passes for location: London (51.5072 / 0.1276)

Sorry there are no passes over London.